Regional Weather Roundup
Issued by NWS Cleveland, OH

Home | Current Version | Previous Version | Graphics & Text | Print | Product List | Glossary On
Versions: 1 2 3 4 5 6 7 8 9 10 11 12 13 14 15 16 17 18 19 20 21 22 23 24 25 26 27 28 29 30 31 32 33 34 35 36 37 38 39 40 41 42 43 44 45 46 47 48 49 50
000
ASUS41 KCLE 290310
RWRCLE
OHIO REGIONAL WEATHER ROUNDUP
NATIONAL WEATHER SERVICE WILMINGTON, OH
1100 PM EDT THU MAY 28 2015

NOTE: "FAIR" INDICATES FEW OR NO CLOUDS BELOW 12,000 FEET WITH NO
SIGNIFICANT WEATHER AND/OR OBSTRUCTIONS TO VISIBILITY.

OHZ001>008-015>018-024>027-034-035-043-044-290400-
   NORTHWEST OHIO

CITY           SKY/WX    TMP DP  RH WIND       PRES   REMARKS
DEFIANCE       CLEAR     69  57  65 E10       30.18R
FINDLAY        PTCLDY    70  56  61 E10       30.19R
TOLEDO EXPRESS PTCLDY    64  55  72 E8        30.20R
TOLEDO EXEC    CLEAR     64  55  72 E7        30.22R
LIMA           PTCLDY    72  60  66 E8        30.18R
$$

OHZ009>014-019>023-028>033-038-089-290400-
   NORTHEAST OHIO

CITY           SKY/WX    TMP DP  RH WIND       PRES   REMARKS
CLE-HOPKINS    CLEAR     68  57  68 SE3       30.25R
CLE-LAKEFRONT  FAIR      70  58  65 E7        30.22R
CUY CO. ARPT   PTCLDY    68 N/A N/A SE9       30.25R
LORAIN-ELYRIA  CLEAR     64  54  69 CALM      30.23R
ASHTABULA      CLEAR     61  54  77 E5        30.27R
AKRON-CANTON   CLEAR     70  55  59 E6        30.25R
WOOSTER        CLEAR     66  59  78 CALM      30.25R
MANSFIELD      CLEAR     67  60  78 E7        30.23R
YOUNGSTOWN     CLEAR     65  57  75 NE7       30.26R
$$

OHZ042-051>053-060>062-070>072-077>081-290400-
  SOUTHWEST OHIO

CITY           SKY/WX    TMP DP  RH WIND       PRES   REMARKS
CINC-COVINGTON MOCLDY    70  65  84 S5        30.18R
CINC-LUNKEN    CLEAR     68  66  93 CALM      30.18R
HAMILTON       CLEAR     66  63  90 E3        30.18R
DAYTON         PTCLDY    74  62  66 S6        30.19R
WRIGHT-PAT AFB CLEAR     73  63  69 SE6       30.18R
DAYTON GENERAL CLEAR     72  62  71 SE3       30.18R
WILMINGTON     CLEAR     70  62  76 E5        30.19R
$$

OHZ036-037-039>041-045>050-054>059-063>069-073>076-082>088-290400-
  CENTRAL AND SOUTHEAST OHIO

CITY           SKY/WX    TMP DP  RH WIND       PRES   REMARKS
COLUMBUS       MOCLDY    72  62  71 CALM      30.20R
OSU AIRPORT    PTCLDY    72  61  68 E6        30.20R
BOLTON FIELD   NOT AVBL
RICKENBACK AFB CLEAR     71  63  77 SE3       30.20R
NEWARK         CLEAR     67  62  84 CALM      30.21R
MARION         CLEAR     69  59  70 SE8       30.21R
LANCASTER      PTCLDY    68  63  84 CALM      30.21R
ZANESVILLE     CLEAR     69  61  75 CALM      30.22R
NEW PHILLY     CLEAR     67  61  81 CALM      30.24R
$$



USA.gov is the U.S. government's official web portal to all federal, state and local government web resources and services.